FENGYUN 1C DEB, 30913

Orbit data source: Space-Track

FENGYUN 1C DEB, 30913 is space debris in SSO originally from a launch on Mon, 10 May 1999 UTC launched from the Taiyaun Space Center, China (TSC). Fengyun 1C debris stems from the Chinese weather satellite Fengyun-1C, which was intentionally destroyed by a Chinese anti-satellite missile in 2007. This event dramatically increased the amount of space debris, with thousands of trackable fragments posing hazards to satellites and human spaceflight. The Fengyun 1C debris cloud has become a focal point in discussions about space sustainability and the need for international regulations to prevent the creation of new debris.

Loading next visibility...
Identifier
30913, 1999-025AZB
Orbit
SSO
Country
Flag of CNCN / PRC
Related business
Manufacturer
Unknown
Mission
Spacecraft
Bus & Motor
Unknown
Mass
Unknown
Launch date (UTC)
1999-05-10 (27 years ago)
Launch vehicle
Unknown
Launch site
Taiyaun Space Center, China (TSC)
Object type
Payload
Rocket body
Debris
Shape & HBR
Unknown shape, 0.1 m
Radar Cross Section
Small (<0.1 m²)

Expand to show TLE details & history
Last TLE update: 15 hours ago

TLE from 15 hours ago
0 FENGYUN 1C DEB
1 30913U 99025AZB 25352.60310478  .00000651  00000-0  42642-3 0  9990
2 30913  98.7451  19.3377 0048743 165.0053 195.2573 14.04959384960002
Epoch: 2025-12-18T14:28Z
TLE epoch observation values (Epoch: 2025-12-18T14:28:28.252Z)
Latitude
-0.00006°
Longitude
74.76375°
Altitude
913.699 km
Speed
7.378 km/s
True Right ascension
01h 17m 21s
True Declination
0° 00' 00"
Sunlit
Object was in daylight at epoch
Visualization orbit readout
Latitude
Unknown
Longitude
Unknown
Altitude
Unknown
Speed
Unknown
Apparent Right ascension
Unknown
Apparent Declination
Unknown
Sunlit
N/A
Visualization observer readout
Local Sidereal Time
04:11:04
Azimuth
Unknown
Elevation
Unknown
Doppler factor
Unknown
Orbital elements
Apogee altitude
909.201 km
Perigee altitude
838.504 km
Semi-major axis
7,251.99 km
Eccentricity
0.00487
Inclination
98.7451°
RAAN
19.3377°
Arg. of periapsis
165.0053°
True anomaly
195.11117°
Mean anomaly
195.2573°
Eccentric anomaly
195.18415°
Mean motion
3.51445 °/min
Orbital period
102.43 mins
BSTAR
0.00042642
Loading maneuver chart data...
Computing Atmospheric mass density...

Documentation

Showing up to 5 results
|